Weather History for Warroad, MN

Change the Weather History Date:

Sunday, January 6, 2013

  Actual Average Record
Temperature  
Mean Temperature 6 °F -  
Max Temperature 21 °F 12 °F 43 °F (1984)
Min Temperature -9 °F -8 °F -44 °F (1968)
Degree Days  
Heating Degree Days 59    
Moisture  
Dew Point 1 °F    
Average Humidity 79    
Maximum Humidity 86    
Minimum Humidity 67    
Precipitation  
Precipitation 0.00 in - - ()
Sea Level Pressure  
Sea Level Pressure 30.00 in    
Wind  
Wind Speed 2 mph (SSW)    
Max Wind Speed 16 mph    
Max Gust Speed 22 mph    
Visibility 10 miles    
Events      
Averages and records for this station are not official NWS values.
T = Trace of Precipitation, MM = Missing Value Source: NWS Daily Summary

Daily Weather History Graph

Daily Weather History Graph

Search for Another Location

Airport:

Trip Planner

Search our weather history database for the weather conditions in past years. The results will help you decide how hot, cold, wet, or windy it might be!

Date:

Astronomy

Jan. 06, 2013 Rise Set
Actual Time 8:14 AM CST 4:40 PM CST
Civil Twilight 7:37 AM CST 5:17 PM CST
Nautical Twilight 6:57 AM CST 5:57 PM CST
Astronomical Twilight 6:19 AM CST 6:35 PM CST
Moon 2:17 AM CST (1/6) 12:18 PM CST (1/6)
Length of Visible Light 9h 39m
Length of Day
8h 26m
Waning Crescent, 33% of the Moon is Illuminated
Jan 6
Waning Crescent
Jan 11
New
Jan 18
First Quarter
Jan 26
Full
Feb 3
Last Quarter

Hourly Weather History & Observations

Time (CST) Temp. Windchill Dew Point Humidity Pressure Visibility Wind Dir Wind Speed Gust Speed Precip Events Conditions
12:14 AM 6.8 °F -0.1 °F 1.4 °F 79% 30.05 in 10.0 mi West 3.5 mph - N/A   Clear
12:34 AM 6.8 °F - 1.4 °F 79% 30.05 in 10.0 mi Calm Calm - N/A   Clear
12:54 AM 5.0 °F -2.1 °F -0.4 °F 78% 30.05 in 10.0 mi West 3.5 mph - N/A   Clear
1:14 AM 3.2 °F - -0.4 °F 85% 30.06 in 10.0 mi Calm Calm - N/A   Clear
1:34 AM 3.2 °F - -2.2 °F 78% 30.06 in 10.0 mi Calm Calm - N/A   Clear
1:54 AM 1.4 °F -8.3 °F -2.2 °F 85% 30.06 in 10.0 mi WSW 4.6 mph - N/A   Clear
2:14 AM 1.4 °F -8.3 °F -2.2 °F 85% 30.07 in 10.0 mi WSW 4.6 mph - N/A   Clear
2:34 AM 1.4 °F -8.3 °F -2.2 °F 85% 30.09 in 10.0 mi West 4.6 mph - N/A   Clear
2:54 AM -0.4 °F -10.4 °F -4.0 °F 85% 30.10 in 10.0 mi West 4.6 mph - N/A   Clear
3:14 AM 1.4 °F -6.2 °F -2.2 °F 85% 30.09 in 10.0 mi WNW 3.5 mph - N/A   Clear
3:34 AM 1.4 °F - -2.2 °F 85% 30.09 in 10.0 mi Calm Calm - N/A   Clear
4:14 AM -2.2 °F - -7.6 °F 78% 30.10 in 10.0 mi Calm Calm - N/A   Clear
4:34 AM -4.0 °F - -7.6 °F 85% 30.10 in 10.0 mi Calm Calm - N/A   Clear
4:54 AM -5.8 °F - -9.4 °F 84% 30.10 in 10.0 mi Calm Calm - N/A   Clear
5:34 AM -5.8 °F - -11.2 °F 77% 30.10 in 10.0 mi Calm Calm - N/A   Clear
6:34 AM -5.8 °F - -11.2 °F 77% 30.12 in 10.0 mi Calm Calm - N/A   Clear
6:54 AM -5.8 °F -14.5 °F -9.4 °F 84% 30.12 in 10.0 mi SSW 3.5 mph - N/A   Clear
7:14 AM -7.6 °F - -14.8 °F 71% 30.12 in 10.0 mi Calm Calm - N/A   Clear
7:34 AM -7.6 °F - -14.8 °F 71% 30.12 in 10.0 mi Calm Calm - N/A   Clear
7:54 AM -7.6 °F - -11.2 °F 84% 30.12 in 10.0 mi Calm Calm - N/A   Clear
8:14 AM -7.6 °F - -14.8 °F 71% 30.12 in 10.0 mi Calm Calm - N/A   Clear
8:34 AM -9.4 °F - -14.8 °F 77% 30.12 in 10.0 mi Calm Calm - N/A   Clear
8:54 AM -7.6 °F - -14.8 °F 71% 30.13 in 10.0 mi Calm Calm - N/A   Clear
9:14 AM -5.8 °F - -9.4 °F 84% 30.13 in 10.0 mi Calm Calm - N/A   Clear
9:34 AM -0.4 °F - -5.8 °F 78% 30.13 in 10.0 mi Calm Calm - N/A   Clear
9:54 AM -0.4 °F - -4.0 °F 85% 30.14 in 10.0 mi Calm Calm - N/A   Clear
10:14 AM -0.4 °F - -5.8 °F 78% 30.13 in 10.0 mi Calm Calm - N/A   Clear
10:34 AM -0.4 °F - -5.8 °F 78% 30.14 in 7.0 mi Calm Calm - N/A   Clear
10:54 AM 1.4 °F - -2.2 °F 85% 30.13 in 10.0 mi Calm Calm - N/A   Clear
11:14 AM 3.2 °F - -2.2 °F 78% 30.12 in 10.0 mi Calm Calm - N/A   Clear
11:34 AM 3.2 °F - -0.4 °F 85% 30.11 in 10.0 mi Calm Calm - N/A   Clear
12:14 PM 8.6 °F - 1.4 °F 73% 30.09 in 10.0 mi Calm Calm - N/A   Clear
12:34 PM 10.4 °F - 1.4 °F 67% 30.07 in 10.0 mi Calm Calm - N/A   Clear
12:54 PM 8.6 °F - 1.4 °F 73% 30.06 in 10.0 mi Calm Calm - N/A   Clear
1:14 PM 8.6 °F - 1.4 °F 73% 30.06 in 10.0 mi Calm Calm - N/A   Clear
1:34 PM 8.6 °F - 1.4 °F 73% 30.05 in 10.0 mi Calm Calm - N/A   Clear
1:54 PM 8.6 °F - 1.4 °F 73% 30.05 in 10.0 mi Calm Calm - N/A   Clear
2:14 PM 8.6 °F - 3.2 °F 79% 30.03 in 10.0 mi Calm Calm - N/A   Clear
2:34 PM 10.4 °F - 3.2 °F 73% 30.02 in 10.0 mi Calm Calm - N/A   Clear
2:54 PM 8.6 °F - 1.4 °F 73% 30.02 in 10.0 mi Calm Calm - N/A   Clear
3:14 PM 8.6 °F - 1.4 °F 73% 30.00 in 10.0 mi Calm Calm - N/A   Clear
3:34 PM 8.6 °F - 1.4 °F 73% 30.00 in 10.0 mi Calm Calm - N/A   Clear
3:54 PM 8.6 °F - 3.2 °F 79% 30.00 in 10.0 mi Calm Calm - N/A   Clear
4:14 PM 8.6 °F - 3.2 °F 79% 29.98 in 10.0 mi Calm Calm - N/A   Clear
4:34 PM 8.6 °F - 1.4 °F 73% 29.97 in 10.0 mi Calm Calm - N/A   Clear
4:54 PM 6.8 °F - 1.4 °F 79% 29.96 in 10.0 mi Calm Calm - N/A   Clear
5:14 PM 6.8 °F - 1.4 °F 79% 29.95 in 10.0 mi Calm Calm - N/A   Clear
5:34 PM 3.2 °F - -0.4 °F 85% 29.94 in 10.0 mi Calm Calm - N/A   Clear
6:14 PM 6.8 °F -3.5 °F 1.4 °F 79% 29.91 in 10.0 mi South 5.8 mph - N/A   Mostly Cloudy
6:34 PM 14.0 °F 2.9 °F 10.4 °F 86% 29.89 in 10.0 mi South 8.1 mph - N/A   Scattered Clouds
6:54 PM 17.6 °F 5.7 °F 12.2 °F 79% 29.88 in 10.0 mi South 10.4 mph - N/A   Clear
7:14 PM 17.6 °F 8.2 °F 12.2 °F 79% 29.87 in 10.0 mi South 6.9 mph - N/A   Clear
7:34 PM 17.6 °F 6.4 °F 12.2 °F 79% 29.83 in 10.0 mi South 9.2 mph - N/A   Clear
7:54 PM 17.6 °F 4.3 °F 12.2 °F 79% 29.81 in 10.0 mi South 12.7 mph 16.1 mph N/A   Clear
8:14 PM 17.6 °F 3.7 °F 12.2 °F 79% 29.79 in 10.0 mi South 13.8 mph 19.6 mph N/A   Clear
8:34 PM 17.6 °F 2.7 °F 12.2 °F 79% 29.77 in 10.0 mi South 16.1 mph 21.9 mph N/A   Clear
9:14 PM 17.6 °F 5.7 °F 12.2 °F 79% 29.74 in 10.0 mi South 10.4 mph - N/A   Clear
9:34 PM 17.6 °F 5.7 °F 14.0 °F 86% 29.75 in 10.0 mi SSW 10.4 mph - N/A   Clear
9:54 PM 19.4 °F 7.9 °F 14.0 °F 80% 29.73 in 10.0 mi SSW 10.4 mph 18.4 mph N/A   Mostly Cloudy
10:14 PM 19.4 °F 9.5 °F 14.0 °F 80% 29.72 in 10.0 mi South 8.1 mph - N/A   Mostly Cloudy
10:34 PM 19.4 °F 6.0 °F 15.8 °F 86% 29.69 in 10.0 mi South 13.8 mph 18.4 mph N/A   Clear
10:54 PM 19.4 °F 7.2 °F 15.8 °F 86% 29.69 in 10.0 mi South 11.5 mph 19.6 mph N/A   Clear
11:34 PM 21.2 °F 10.9 °F 15.8 °F 80% 29.66 in 10.0 mi South 9.2 mph 16.1 mph N/A   Clear
11:54 PM 21.2 °F 11.7 °F 15.8 °F 80% 29.66 in 10.0 mi SSW 8.1 mph - N/A   Clear